[[{"header":{"parameterUnit":"m.s-1","parameterCategory":1,"la1":30.2991,"la2":30.254,"lo1":-89.0895,"lo2":-89.0444,"dy":0.0017,"dx":0.0017,"nx":28,"ny":28,"refTime":"2023-10-10T09:00:00:Z","depth":0,"parameterNumber":2,"parameterNumberName":"U-component_of_WINDS"},"data":[0,0,0,0,0,0,0,0,0,0,0,0,0,0,0,0,0,0,0,0,0,0,0,0,0,0,0,0,0,0,0,0,0,0,0,0,0,0,0,0,0,0,0,0,0,0,0,0,0,0,0,0,0,0,0,0,0,0,-1.2873,-1.2874,0,-1.291,-1.2911,-1.2911,-1.2886,-1.2884,-1.2883,-1.2882,-1.2921,-1.2923,-1.2926,0,0,0,0,0,0,0,0,0,0,0,0,0,-1.2782,-1.2784,-1.2873,-1.2874,-1.2874,-1.291,-1.2911,-1.2911,-1.2886,-1.2884,-1.2883,-1.2882,-1.2921,-1.2923,-1.2926,0,0,0,0,0,0,0,0,0,0,0,0,0,-1.2821,-1.2784,-1.2873,-1.2866,-1.2865,-1.291,-1.2911,-1.2911,-1.2886,-1.2884,-1.2883,-1.2881,-1.292,-1.2923,-1.2926,-1.298,0,0,-1.2936,-1.2937,0,0,0,0,0,0,0,0,-1.2818,-1.2824,-1.2866,-1.2866,-1.2866,-1.2891,-1.2893,-1.2934,-1.2887,-1.2878,-1.2882,-1.288,-1.2913,-1.2917,-1.2927,-1.2982,-1.2984,-1.2936,-1.2938,-1.2939,-1.294,0,0,0,0,0,0,0,-1.2816,-1.2822,-1.2888,-1.2867,-1.2867,-1.2861,-1.2865,-1.2901,-1.2905,-1.2879,-1.2877,-1.2882,-1.2913,-1.2924,-1.2928,-1.2984,-1.2936,-1.2939,-1.2941,-1.2942,-1.3086,-1.3088,0,0,0,0,0,0,-1.2814,-1.282,-1.2887,-1.2889,-1.2837,-1.2864,-1.2868,-1.2885,-1.2904,-1.2906,-1.2883,-1.288,-1.292,-1.2924,-1.2929,-1.2994,-1.2939,-1.2942,-1.2944,-1.3084,-1.3087,-1.3089,0,0,0,0,0,0,-1.2812,-1.282,-1.2885,-1.2854,-1.2862,-1.2868,-1.2887,-1.2887,-1.2899,-1.2908,-1.2908,-1.2894,-1.2919,-1.2925,-1.2968,-1.2995,-1.2944,-1.2947,-1.3082,-1.3085,-1.3088,-1.3125,0,0,0,0,0,0,-1.2809,-1.2819,-1.284,-1.2855,-1.2864,-1.2923,-1.2889,-1.2889,-1.2904,-1.2901,-1.2918,-1.292,-1.2918,-1.2963,-1.2971,-1.2999,-1.2949,-1.3079,-1.3083,-1.3087,-1.3121,-1.3129,-1.3135,0,0,0,0,0,-1.2806,-1.2849,-1.2841,-1.2849,-1.2889,-1.2924,-1.293,-1.2926,-1.2906,-1.2927,-1.2933,-1.2919,-1.2991,-1.2968,-1.2976,-1.3006,-1.3078,-1.3082,-1.3086,-1.3118,-1.3127,-1.3135,0,0,0,0,0,0,-1.2837,-1.2851,-1.2842,-1.2891,-1.2907,-1.292,-1.2946,-1.2936,-1.2958,-1.2954,-1.2949,-1.2953,-1.2998,-1.3006,-1.298,-1.3059,-1.3031,-1.3038,-1.3053,-1.3061,-1.3068,-1.3066,-1.2952,0,0,0,0,0,-1.2849,-1.2876,-1.2887,-1.2929,-1.2937,-1.294,-1.2956,-1.2952,-1.2968,-1.2975,-1.2984,-1.3001,-1.3027,-1.3045,-1.3069,-1.3122,-1.3126,-1.3147,-1.3154,-1.3159,-1.3165,-1.3194,-1.3203,-1.3103,-1.3103,-1.3103,0,0,-1.2876,-1.2886,-1.2904,-1.2936,-1.2947,-1.2976,-1.2946,-1.2978,-1.2999,-1.298,-1.3021,-1.3028,-1.3047,-1.3095,-1.3117,-1.3103,-1.3193,-1.3165,-1.3169,-1.3172,-1.3199,-1.3209,-1.3217,-1.3106,-1.3105,-1.3105,0,0,-1.2938,-1.2948,-1.2985,-1.2997,-1.3015,-1.3017,-1.3026,-1.3041,-1.3045,-1.3086,-1.3073,-1.3098,-1.3144,-1.3157,-1.3171,-1.3238,-1.3227,-1.3247,-1.3283,-1.3312,-1.3319,-1.3326,-1.3351,-1.336,-1.3252,-1.3252,-1.3252,0,-1.2968,-1.301,-1.3005,-1.3038,-1.3052,-1.3036,-1.3073,-1.3085,-1.3111,-1.3122,-1.3106,-1.3163,-1.3174,-1.3226,-1.3242,-1.3253,-1.3264,-1.3245,-1.3319,-1.3326,-1.3332,-1.3356,-1.3365,-1.3255,-1.3254,-1.3254,-1.3254,0,-1.3047,-1.3076,-1.3104,-1.3128,-1.3146,-1.3181,-1.3182,-1.32,-1.3195,-1.3198,-1.3241,-1.3254,-1.3281,-1.3293,-1.3288,-1.3344,-1.3335,-1.3319,-1.3291,-1.3344,-1.3366,-1.3375,-1.3258,-1.3257,-1.3256,-1.3256,0,0,-1.313,-1.3151,-1.3162,-1.3173,-1.3192,-1.3215,-1.3249,-1.3275,-1.3292,-1.331,-1.3339,-1.3378,-1.3363,-1.3378,-1.3375,-1.34,-1.3453,-1.3381,-1.3381,-1.3394,-1.3517,-1.3529,-1.3539,-1.3446,-1.3447,-1.3449,-1.3515,0,-1.3194,-1.3253,-1.3249,-1.3305,-1.3333,-1.3317,-1.3347,-1.3362,-1.3367,-1.3391,-1.3396,-1.3424,-1.3402,-1.3411,-1.3435,-1.3442,-1.3478,-1.3437,-1.3473,-1.3474,-1.3469,-1.3551,-1.3564,-1.3626,-1.3524,-1.3525,-1.3526,0,-1.3276,-1.3297,-1.3355,-1.337,-1.3382,-1.3409,-1.3433,-1.3456,-1.3473,-1.3475,-1.3491,-1.3484,-1.3519,-1.349,-1.3538,-1.3511,-1.3525,-1.3531,-1.3533,-1.3537,-1.3504,-1.3557,-1.3646,-1.3655,-1.354,-1.3539,-1.3538,0,-1.3331,-1.3374,-1.3415,-1.3425,-1.3443,-1.3462,-1.3471,-1.3486,-1.3503,-1.3524,-1.3534,-1.356,-1.3574,-1.3594,-1.3593,-1.3572,-1.3643,-1.3614,-1.3646,-1.3646,-1.3662,-1.3661,-1.3755,-1.3671,-1.367,-1.367,-1.367,0,-1.3403,-1.344,-1.344,-1.3465,-1.3506,-1.3501,-1.3542,-1.3549,-1.3562,-1.3589,-1.3577,-1.3602,-1.36,-1.3626,-1.3626,-1.3667,-1.3673,-1.3676,-1.3675,-1.3677,-1.3677,-1.3687,-1.3683,-1.3673,-1.3672,-1.3672,-1.3671,0,-1.3472,-1.3474,-1.3517,-1.3531,-1.3535,-1.3565,-1.3577,-1.3601,-1.3604,-1.3638,-1.3645,-1.3651,-1.3681,-1.3682,-1.3716,-1.3716,-1.3766,-1.3761,-1.376,-1.376,-1.3792,-1.3789,-1.3896,-1.391,-1.3816,-1.3817,-1.3818,0,-1.3518,-1.3546,-1.3563,-1.3579,-1.3589,-1.3616,-1.3633,-1.363,-1.3647,-1.3669,-1.3691,-1.3719,-1.3742,-1.379,-1.3797,-1.3824,-1.3819,-1.3855,-1.3823,-1.3824,-1.382,-1.3819,-1.3822,-1.3861,-1.3862,-1.3863,-1.3864,0,-1.36,-1.3599,-1.3623,-1.3648,-1.3667,-1.3686,-1.3704,-1.3719,-1.3718,-1.3738,-1.3768,-1.3786,-1.3821,-1.3849,-1.3875,-1.3884,-1.3875,-1.3873,-1.3882,-1.3885,-1.3884,-1.3885,-1.3778,-1.3871,-1.387,-1.387,-1.3869,-1.3869,-1.366,-1.3684,-1.3699,-1.3726,-1.3739,-1.3756,-1.3779,-1.3785,-1.381,-1.3838,-1.3835,-1.3868,-1.3885,-1.3918,-1.393,-1.3956,-1.3944,-1.3957,-1.3961,-1.3964,-1.3968,-1.3879,-1.3961,-1.3961,-1.3961,-1.396,-1.396,0,-1.3742,-1.3751,-1.3775,-1.38,-1.3822,-1.381,-1.3829,-1.3848,-1.3877,-1.3893,-1.3916,-1.395,-1.3978,-1.3988,-1.4015,-1.4034,-1.403,-1.4041,-1.404,-1.4043,-1.3977,-1.3966,-1.4044,-1.4044,-1.4044,-1.4044,-1.4044,-1.4044,-1.3787,-1.3827,-1.3828,-1.3875,-1.3884,-1.3916,-1.3928,-1.3944,-1.3956,-1.3996,-1.4018,-1.4024,-1.4038,-1.4066,-1.4091,-1.4093,-1.4104,-1.4117,-1.4118,-1.4056,-1.4047,-1.4039,-1.403,-1.412,-1.412,-1.4182,-1.4182,-1.4183]},{"header":{"parameterUnit":"m.s-1","parameterCategory":1,"la1":30.2991,"la2":30.254,"lo1":-89.0895,"lo2":-89.0444,"dy":0.0017,"dx":0.0017,"nx":28,"ny":28,"refTime":"2023-10-10T09:00:00:Z","depth":0,"parameterNumber":3,"parameterNumberName":"V-component_of_WINDS"},"data":[0,0,0,0,0,0,0,0,0,0,0,0,0,0,0,0,0,0,0,0,0,0,0,0,0,0,0,0,0,0,0,0,0,0,0,0,0,0,0,0,0,0,0,0,0,0,0,0,0,0,0,0,0,0,0,0,0,0,2.9989,2.9989,0,3.0002,3.0002,3.0002,2.9967,2.9965,2.9964,2.9963,2.9975,2.9977,2.9978,0,0,0,0,0,0,0,0,0,0,0,0,0,2.993,2.9932,2.9989,2.9989,2.9989,3.0002,3.0002,3.0002,2.9967,2.9965,2.9964,2.9963,2.9975,2.9976,2.9978,0,0,0,0,0,0,0,0,0,0,0,0,0,2.9951,2.9932,2.9989,2.9973,2.9972,3.0002,3.0002,3.0002,2.9967,2.9965,2.9964,2.9962,2.9974,2.9976,2.9978,3.0024,0,0,2.9985,2.9985,0,0,0,0,0,0,0,0,2.995,2.9953,2.9975,2.9974,2.9973,2.9981,2.9986,3.001,2.9967,2.9969,2.9963,2.9961,2.9978,2.998,2.9986,3.0025,3.0025,2.9985,2.9986,2.9987,2.9987,0,0,0,0,0,0,0,2.9948,2.9952,2.9994,2.9975,2.9974,2.9964,2.9965,2.999,2.9983,2.9968,2.9966,2.9968,2.9977,2.9984,2.9986,3.0025,2.9985,2.9986,2.9988,2.9989,3.0101,3.0102,0,0,0,0,0,0,2.9949,2.9951,2.9994,2.9994,2.9957,2.9967,2.9968,2.998,2.9982,2.9981,2.9969,2.9966,2.9982,2.9984,2.9986,3.0039,2.9987,2.9989,2.999,3.0099,3.0101,3.0103,0,0,0,0,0,0,2.9948,2.9953,2.9993,2.9972,2.9976,2.997,2.9983,2.9981,2.9988,2.9983,2.9981,2.9978,2.998,2.9984,3.0015,3.0039,2.999,2.9991,3.0097,3.01,3.0102,3.0144,0,0,0,0,0,0,2.9947,2.9953,2.9971,2.9973,2.9978,3.0022,2.9985,2.9983,2.9992,2.9988,2.9991,2.9989,2.9979,3.0012,3.0017,3.004,2.9993,3.0095,3.0098,3.0101,3.0141,3.0148,3.0155,0,0,0,0,0,2.9945,2.9982,2.9972,2.9977,3.0,3.0023,3.0026,3.0014,2.9994,3.0011,3.0008,2.9989,3.0036,3.0015,3.0021,3.0045,3.0093,3.0097,3.0101,3.0138,3.0147,3.0154,0,0,0,0,0,0,2.9983,2.9982,2.9971,3.0011,3.0017,3.0017,3.0039,3.0024,3.0036,3.0032,3.0016,3.0017,3.0051,3.0052,3.0029,3.0089,3.0061,3.0066,3.0087,3.0096,3.0102,3.01,2.9995,0,0,0,0,0,2.9996,3.0016,3.0014,3.0049,3.0053,3.0046,3.0055,3.0046,3.0052,3.0054,3.0053,3.0059,3.0075,3.0086,3.01,3.0142,3.0141,3.0161,3.0168,3.0174,3.0178,3.0198,3.0206,3.0116,3.0116,3.0116,0,0,3.0023,3.0025,3.0039,3.0057,3.0061,3.008,3.0048,3.0071,3.0084,3.0057,3.0086,3.0086,3.0092,3.0128,3.0144,3.0129,3.0203,3.0179,3.0183,3.0184,3.0203,3.0211,3.0219,3.0119,3.0118,3.0118,0,0,3.0082,3.0087,3.0116,3.012,3.0127,3.0122,3.0129,3.0131,3.013,3.0159,3.0139,3.0155,3.0183,3.0187,3.0193,3.0254,3.0237,3.026,3.0294,3.0314,3.0321,3.0327,3.0347,3.0355,3.0264,3.0264,3.0264,0,3.0115,3.0144,3.0132,3.0156,3.0164,3.0141,3.0169,3.0174,3.0185,3.0191,3.0175,3.0209,3.0211,3.0247,3.0262,3.0269,3.0275,3.0258,3.0321,3.0327,3.0333,3.0351,3.0359,3.0267,3.0266,3.0266,3.0266,0,3.0183,3.0203,3.0226,3.0237,3.0248,3.0274,3.0265,3.0277,3.0267,3.0263,3.0292,3.0295,3.0308,3.0317,3.0307,3.0351,3.0342,3.0324,3.0295,3.0344,3.0361,3.0368,3.027,3.0269,3.0269,3.0268,0,0,3.0265,3.0269,3.0277,3.0281,3.0287,3.0303,3.0327,3.0341,3.0351,3.036,3.0379,3.0403,3.0387,3.0394,3.0384,3.0402,3.0448,3.0382,3.0382,3.0392,3.0494,3.0506,3.0514,3.0437,3.0439,3.044,3.0493,0,3.0321,3.0363,3.0353,3.0395,3.0412,3.0391,3.0412,3.0418,3.0415,3.043,3.0427,3.0443,3.0421,3.0425,3.0442,3.0439,3.0468,3.0435,3.0453,3.0454,3.045,3.0523,3.0536,3.0586,3.05,3.0501,3.0502,0,3.0392,3.0403,3.0447,3.0448,3.0455,3.0475,3.0486,3.0501,3.0506,3.0503,3.0511,3.0498,3.0521,3.0494,3.0525,3.0503,3.051,3.0509,3.0511,3.051,3.0479,3.0523,3.0602,3.0609,3.0513,3.0512,3.0511,0,3.0445,3.0471,3.05,3.0504,3.0508,3.0521,3.0524,3.0528,3.0536,3.0546,3.0551,3.0564,3.0571,3.0581,3.0571,3.0552,3.0603,3.0575,3.0599,3.0599,3.0609,3.0608,3.0688,3.0618,3.0618,3.0617,3.0617,0,3.0507,3.0534,3.0523,3.054,3.0569,3.0558,3.0587,3.0586,3.059,3.0606,3.0589,3.0605,3.0592,3.0607,3.06,3.0625,3.0629,3.0626,3.0623,3.0626,3.0626,3.0629,3.0624,3.0619,3.0619,3.0619,3.0618,0,3.057,3.0564,3.0594,3.0595,3.0596,3.0617,3.0617,3.0633,3.0629,3.065,3.0654,3.0648,3.0664,3.0656,3.0673,3.0668,3.0701,3.0695,3.0699,3.0696,3.072,3.0717,3.0803,3.0813,3.0738,3.0739,3.0739,0,3.0609,3.0629,3.0632,3.0642,3.0645,3.0662,3.067,3.066,3.0669,3.0677,3.0691,3.0706,3.0717,3.0743,3.074,3.0752,3.0745,3.0774,3.0747,3.0748,3.0743,3.0741,3.0742,3.0779,3.078,3.0781,3.0781,0,3.0678,3.0674,3.0688,3.07,3.0711,3.072,3.0728,3.0737,3.0726,3.0738,3.0754,3.0763,3.078,3.0794,3.0804,3.0806,3.0791,3.079,3.0796,3.0798,3.0799,3.0796,3.0711,3.0788,3.0787,3.0787,3.0786,3.0786,3.0729,3.0745,3.075,3.0765,3.077,3.0777,3.0791,3.079,3.0803,3.0816,3.0809,3.0827,3.0832,3.0845,3.0848,3.0862,3.085,3.0859,3.0861,3.0863,3.0865,3.0799,3.0864,3.0864,3.0864,3.0864,3.0863,0,3.0795,3.0797,3.0812,3.0823,3.0834,3.0821,3.0829,3.0839,3.0856,3.0861,3.0872,3.089,3.0904,3.0902,3.0914,3.0925,3.0919,3.0929,3.0927,3.0927,3.0876,3.0868,3.0934,3.0934,3.0934,3.0934,3.0934,3.0934,3.0831,3.0857,3.0854,3.0882,3.0883,3.0901,3.0907,3.0913,3.0917,3.0938,3.0949,3.0948,3.095,3.0963,3.0974,3.0973,3.0978,3.0989,3.0986,3.0938,3.0931,3.0924,3.0917,3.0991,3.0991,3.1035,3.1036,3.1036]}]]